National Oceanic Atmosphere Administration National Weather Service Headquarters National Weather Service Headquarters
NOAA logo WFO Anchorage Scalable transition graphic NWS logo
Transition from title bar to navgation bar   Aviation Weather 04 AKST 
blankspace Home   |   Mobile   |   Social Media   |   Mesonet   |   Surface Map   |   Radar   |   Submit Storm Reports   |   News =13 GMT 

LocalForecast by City, St or Zip Code

spacer

Forecasts/Products
  Public
  Forecast Discussion
    - With Glossary
  Aviation
  Marine
  Hydrology(RFC)
  Rivers & Lakes AHPS
  Ice Desk
  TV Weather
  Fire Weather
  Avalanche
  Travel 511
  Graphical
  xml logo RSS Feeds
  Marine FTPMail

spacer

Data
  Mesonet
  Model Graphics
  Local Model
  Observations
  Marine Obs
  Satellite/Radar
  Vent Factor
  Soaring Index
  Weather Links

spacer

Climate
  PAFC Climate
  Interactive Climate
  PAFC Records
  Local
  National
  More

spacer

Outreach
  About Us
  Community Outreach
  Kids' Page
  Tour/Speaker Request
  Weather Classroom
  Social Media

spacer

Reports
  COOP Observers
  Local Storm Reports
  Spotter Page
  Submit a Storm Report

spacer

Miscellaneous
  Archived Alaska Weather Stories
  Student Career Opportunities
  Research Papers

spacer

Print Friendly/
Low Bandwidth

  Public Forecasts
  Marine Forecasts

spacer

Contact Us
  mailto pafcweb

spacer

Facebook Follow the National Weather Service in Alaska on Twitter
USA.gov is the U.S. government's official web portal to all federal, state and local government web resources and services.


 ICAO ID:   AAWU Graphics

Internet access to TAFs and METAR observations is for planning purposes only. We can not guarantee the timeliness of internet products. Before flying please get a formal pilot briefing (1-800-992-7433) and ALWAYS file a Flight Plan!Pilot briefings are provided to licensed aircraft pilots, ONLY! Others may not use the above number to obtain weather information.

Check out the Key to TAFs and METARs for help with decoding the information.

A 12 hour summary of TAFs can be found here.

PANC TAF
PANC 261133Z 2612/2718  02005KT P6SM VCSH FEW007 SCT025 OVC045
      TEMPO 2612/2616 3SM BR SCT007 OVC045
     FM262000 02004KT P6SM SCT040 BKN080
     FM262200 34005KT P6SM SCT200=


METAR PANC 261253Z 02006KT 10SM FEW006 SCT030 BKN040 M01/M03 A3033 RMK
     AO2 SLP272 T10061033=
METAR PANC 261253Z 02006KT 10SM FEW006 SCT030 BKN040 M01/M03 A3033=
METAR PANC 261153Z 02004KT 10SM FEW006 SCT030 BKN043 M01/M03 A3033 RMK
     AO2 SLP274 60001 70001 T10111033 10000 21017 50005=
METAR PANC 261153Z 02004KT 10SM FEW006 SCT030 BKN043 M01/M03 A3033=
PANC 261132Z 01004KT 10SM FEW006 SCT030 BKN043 M02/M03 A3033 RMK
     AO2=
PANC 261132Z 01004KT 10SM FEW006 SCT030 BKN043 M02/M03 A3033=
METAR PANC 261053Z 35005KT 10SM FEW010 SCT030 BKN043 M01/M03 A3034
 RMK AO2 SNE27 SLP275 P0000 T10111028=
METAR PANC 261053Z 35005KT 10SM FEW010 SCT030 BKN043 M01/M03 A3034=
METAR PANC 260953Z 36003KT 10SM -SN FEW010 SCT030 OVC046 M01/M03
 A3032 RMK AO2 SNB44 SLP271 P0000 T10061028=
METAR PANC 260953Z 36003KT 10SM -SN FEW010 SCT030 OVC046 M01/M03
     A3032=
PANC 260945Z 03003KT 10SM -SN FEW010 SCT030 OVC046 00/M02 A3032
     RMK AO2 SNB44 P0000=
PANC 260945Z 03003KT 10SM -SN FEW010 SCT030 OVC046 00/M02 A3032=


National Weather Service
Anchorage Forecast Office
6930 Sand Lake Road
Anchorage, Ak 99502
(907) 266-5105 M-F/7-5pm
About Us
Career Opportunities
Glossary
Disclaimer
Privacy Policy
Credits
Alaska Weather Information Line:
1-800-472-0391